Time,TemperatureF,DewpointF,PressureIn,WindDirection,WindDirectionDegrees,WindSpeedMPH,WindSpeedGustMPH,Humidity,HourlyPrecipIn,Conditions,Clouds,dailyrainin,SoftwareType,DateUTC
2013-02-19 00:03:00,5.8,1.0,29.93,SE,125,12.0,16.0,82,0.00,,,0.00,weatherlink.com 1.10,2013-02-19 06:03:00,
2013-02-19 00:19:00,5.8,1.0,29.93,SE,143,15.0,20.0,82,0.00,,,0.00,weatherlink.com 1.10,2013-02-19 06:19:00,
2013-02-19 00:33:00,5.9,2.0,29.94,SSE,150,7.0,24.0,82,0.00,,,0.00,weatherlink.com 1.10,2013-02-19 06:33:00,
2013-02-19 00:48:00,5.8,1.0,29.95,SE,146,18.0,28.0,82,0.00,,,0.00,weatherlink.com 1.10,2013-02-19 06:48:00,
2013-02-19 01:03:00,5.6,1.0,29.96,SE,146,16.0,24.0,81,0.00,,,0.00,weatherlink.com 1.10,2013-02-19 07:03:00,
2013-02-19 01:19:00,5.6,1.0,29.96,SE,130,16.0,23.0,80,0.00,,,0.00,weatherlink.com 1.10,2013-02-19 07:19:00,
2013-02-19 01:34:00,5.1,0.0,29.97,SSE,150,13.0,24.0,79,0.00,,,0.00,weatherlink.com 1.10,2013-02-19 07:34:00,
2013-02-19 01:49:00,4.5,-1.0,29.98,ESE,120,11.0,22.0,79,0.00,,,0.00,weatherlink.com 1.10,2013-02-19 07:49:00,
2013-02-19 02:04:00,4.3,-1.0,29.99,SE,139,17.0,20.0,79,0.00,,,0.00,weatherlink.com 1.10,2013-02-19 08:04:00,
2013-02-19 02:19:00,4.2,-1.0,30.00,SE,143,15.0,21.0,79,0.00,,,0.00,weatherlink.com 1.10,2013-02-19 08:19:00,
2013-02-19 02:34:00,4.1,-1.0,30.01,SSE,150,15.0,25.0,79,0.00,,,0.00,weatherlink.com 1.10,2013-02-19 08:34:00,
2013-02-19 02:49:00,4.1,-1.0,30.01,SE,136,15.0,25.0,79,0.00,,,0.00,weatherlink.com 1.10,2013-02-19 08:49:00,
2013-02-19 03:04:00,4.0,-1.0,30.02,South,184,15.0,22.0,79,0.00,,,0.00,weatherlink.com 1.10,2013-02-19 09:04:00,
2013-02-19 03:20:00,4.0,-1.0,30.03,SSE,162,12.0,24.0,79,0.00,,,0.00,weatherlink.com 1.10,2013-02-19 09:20:00,
2013-02-19 03:35:00,4.0,-1.0,30.04,SSE,159,14.0,20.0,79,0.00,,,0.00,weatherlink.com 1.10,2013-02-19 09:35:00,
2013-02-19 03:49:00,3.9,-1.0,30.04,SSE,157,10.0,24.0,79,0.00,,,0.00,weatherlink.com 1.10,2013-02-19 09:49:00,
2013-02-19 04:04:00,3.8,-2.0,30.05,SE,127,16.0,26.0,78,0.00,,,0.00,weatherlink.com 1.10,2013-02-19 10:04:00,
2013-02-19 04:20:00,3.7,-2.0,30.05,SSE,155,19.0,24.0,78,0.00,,,0.00,weatherlink.com 1.10,2013-02-19 10:20:00,
2013-02-19 04:35:00,3.5,-2.0,30.06,SE,125,13.0,22.0,78,0.00,,,0.00,weatherlink.com 1.10,2013-02-19 10:35:00,
2013-02-19 04:50:00,3.2,-3.0,30.06,SSE,158,14.0,28.0,77,0.00,,,0.00,weatherlink.com 1.10,2013-02-19 10:50:00,
2013-02-19 05:05:00,3.0,-2.0,30.07,SSE,152,20.0,24.0,78,0.00,,,0.00,weatherlink.com 1.10,2013-02-19 11:05:00,
2013-02-19 05:20:00,2.6,-3.0,30.08,SSE,148,9.0,21.0,77,0.00,,,0.00,weatherlink.com 1.10,2013-02-19 11:20:00,
2013-02-19 05:35:00,2.4,-3.0,30.09,SE,136,11.0,21.0,77,0.00,,,0.00,weatherlink.com 1.10,2013-02-19 11:35:00,
2013-02-19 05:50:00,2.2,-3.0,30.09,ESE,111,12.0,25.0,77,0.00,,,0.00,weatherlink.com 1.10,2013-02-19 11:50:00,
2013-02-19 06:05:00,2.0,-3.0,30.10,SE,146,15.0,24.0,78,0.00,,,0.00,weatherlink.com 1.10,2013-02-19 12:05:00,
2013-02-19 06:20:00,1.9,-4.0,30.11,SE,134,15.0,26.0,78,0.00,,,0.00,weatherlink.com 1.10,2013-02-19 12:20:00,
2013-02-19 06:35:00,1.9,-4.0,30.12,SSE,148,10.0,22.0,78,0.00,,,0.00,weatherlink.com 1.10,2013-02-19 12:35:00,
2013-02-19 06:51:00,1.8,-4.0,30.13,SE,139,16.0,21.0,78,0.00,,,0.00,weatherlink.com 1.10,2013-02-19 12:51:00,
2013-02-19 07:06:00,1.8,-4.0,30.14,SE,128,12.0,19.0,78,0.00,,,0.00,weatherlink.com 1.10,2013-02-19 13:06:00,
2013-02-19 07:20:00,1.6,-4.0,30.15,SE,141,12.0,24.0,77,0.00,,,0.00,weatherlink.com 1.10,2013-02-19 13:20:00,
2013-02-19 07:39:00,1.6,-4.0,30.16,SE,133,10.0,24.0,77,0.00,,,0.00,weatherlink.com 1.10,2013-02-19 13:39:00,
2013-02-19 07:51:00,1.7,-4.0,30.17,SE,136,11.0,20.0,77,0.00,,,0.00,weatherlink.com 1.10,2013-02-19 13:51:00,
2013-02-19 08:06:00,0.3,-6.0,30.18,ESE,110,11.0,14.0,76,0.00,,,0.00,weatherlink.com 1.10,2013-02-19 14:06:00,
2013-02-19 08:21:00,0.3,-5.0,30.19,SE,131,12.0,17.0,78,0.00,,,0.00,weatherlink.com 1.10,2013-02-19 14:21:00,
2013-02-19 08:36:00,1.3,-4.0,30.20,ESE,123,15.0,16.0,78,0.00,,,0.00,weatherlink.com 1.10,2013-02-19 14:36:00,
2013-02-19 08:51:00,0.8,-5.0,30.21,SE,138,10.0,17.0,76,0.00,,,0.00,weatherlink.com 1.10,2013-02-19 14:51:00,
2013-02-19 09:06:00,0.4,-6.0,30.22,ESE,117,14.0,17.0,76,0.00,,,0.00,weatherlink.com 1.10,2013-02-19 15:06:00,
2013-02-19 09:21:00,0.3,-6.0,30.22,ESE,108,12.0,22.0,76,0.00,,,0.00,weatherlink.com 1.10,2013-02-19 15:21:00,
2013-02-19 09:36:00,0.2,-6.0,30.23,ESE,117,10.0,21.0,76,0.00,,,0.00,weatherlink.com 1.10,2013-02-19 15:36:00,
2013-02-19 09:51:00,0.3,-6.0,30.23,SE,139,8.0,17.0,75,0.00,,,0.00,weatherlink.com 1.10,2013-02-19 15:51:00,
2013-02-19 10:07:00,0.3,-6.0,30.23,SSE,149,9.0,22.0,75,0.00,,,0.00,weatherlink.com 1.10,2013-02-19 16:07:00,
2013-02-19 10:21:00,1.0,-5.0,30.24,SE,134,9.0,18.0,75,0.00,,,0.00,weatherlink.com 1.10,2013-02-19 16:21:00,
2013-02-19 10:36:00,1.5,-5.0,30.25,SSE,156,8.0,16.0,74,0.00,,,0.00,weatherlink.com 1.10,2013-02-19 16:36:00,
2013-02-19 10:51:00,1.9,-5.0,30.25,SE,134,5.0,19.0,73,0.00,,,0.00,weatherlink.com 1.10,2013-02-19 16:51:00,
2013-02-19 11:06:00,1.9,-6.0,30.27,SE,134,16.0,19.0,71,0.00,,,0.00,weatherlink.com 1.10,2013-02-19 17:06:00,
2013-02-19 11:22:00,1.6,-6.0,30.28,ESE,114,12.0,24.0,70,0.00,,,0.00,weatherlink.com 1.10,2013-02-19 17:22:00,
2013-02-19 11:37:00,1.7,-6.0,30.28,East,99,21.0,27.0,71,0.00,,,0.00,weatherlink.com 1.10,2013-02-19 17:37:00,
2013-02-19 11:52:00,2.2,-5.0,30.29,SE,136,9.0,21.0,71,0.00,,,0.00,weatherlink.com 1.10,2013-02-19 17:52:00,
2013-02-19 12:07:00,2.3,-5.0,30.29,ESE,120,11.0,20.0,70,0.00,,,0.00,weatherlink.com 1.10,2013-02-19 18:07:00,
2013-02-19 12:22:00,2.8,-5.0,30.30,SE,127,14.0,19.0,69,0.00,,,0.00,weatherlink.com 1.10,2013-02-19 18:22:00,
2013-02-19 12:37:00,2.8,-5.0,30.30,SE,135,11.0,22.0,69,0.00,,,0.00,weatherlink.com 1.10,2013-02-19 18:37:00,
2013-02-19 12:52:00,3.1,-6.0,30.30,East,96,21.0,23.0,67,0.00,,,0.00,weatherlink.com 1.10,2013-02-19 18:52:00,
2013-02-19 13:07:00,3.7,-5.0,30.30,SE,131,13.0,20.0,67,0.00,,,0.00,weatherlink.com 1.10,2013-02-19 19:07:00,
2013-02-19 13:22:00,3.8,-5.0,30.30,ESE,120,17.0,19.0,67,0.00,,,0.00,weatherlink.com 1.10,2013-02-19 19:22:00,
2013-02-19 13:37:00,3.7,-5.0,30.30,SSE,158,12.0,22.0,67,0.00,,,0.00,weatherlink.com 1.10,2013-02-19 19:37:00,
2013-02-19 13:52:00,4.0,-5.0,30.30,ESE,104,12.0,21.0,67,0.00,,,0.00,weatherlink.com 1.10,2013-02-19 19:52:00,
2013-02-19 14:07:00,4.3,-5.0,30.31,SE,143,8.0,20.0,66,0.00,,,0.00,weatherlink.com 1.10,2013-02-19 20:07:00,
2013-02-19 14:22:00,4.7,-5.0,30.31,ESE,120,15.0,22.0,65,0.00,,,0.00,weatherlink.com 1.10,2013-02-19 20:22:00,
2013-02-19 14:38:00,4.7,-5.0,30.32,SSE,153,11.0,19.0,64,0.00,,,0.00,weatherlink.com 1.10,2013-02-19 20:38:00,
2013-02-19 14:53:00,5.0,-5.0,30.33,SE,139,12.0,20.0,64,0.00,,,0.00,weatherlink.com 1.10,2013-02-19 20:53:00,
2013-02-19 15:08:00,5.4,-4.0,30.34,SSE,153,9.0,17.0,64,0.00,,,0.00,weatherlink.com 1.10,2013-02-19 21:08:00,
2013-02-19 15:23:00,5.5,-4.0,30.35,SE,124,8.0,19.0,64,0.00,,,0.00,weatherlink.com 1.10,2013-02-19 21:23:00,
2013-02-19 15:38:00,5.7,-5.0,30.36,SSE,156,12.0,21.0,62,0.00,,,0.00,weatherlink.com 1.10,2013-02-19 21:38:00,
2013-02-19 15:53:00,5.8,-5.0,30.36,SE,135,11.0,19.0,62,0.00,,,0.00,weatherlink.com 1.10,2013-02-19 21:53:00,
2013-02-19 16:08:00,5.7,-5.0,30.37,SSE,150,7.0,22.0,62,0.00,,,0.00,weatherlink.com 1.10,2013-02-19 22:08:00,
2013-02-19 16:23:00,5.7,-5.0,30.37,ESE,120,14.0,17.0,62,0.00,,,0.00,weatherlink.com 1.10,2013-02-19 22:23:00,
2013-02-19 16:38:00,5.4,-5.0,30.38,South,171,9.0,21.0,62,0.00,,,0.00,weatherlink.com 1.10,2013-02-19 22:38:00,
2013-02-19 16:53:00,5.7,-5.0,30.38,SSE,151,6.0,18.0,63,0.00,,,0.00,weatherlink.com 1.10,2013-02-19 22:53:00,
2013-02-19 17:08:00,5.5,-5.0,30.39,ESE,117,11.0,19.0,62,0.00,,,0.00,weatherlink.com 1.10,2013-02-19 23:08:00,
2013-02-19 17:23:00,5.3,-5.0,30.39,SE,139,9.0,15.0,63,0.00,,,0.00,weatherlink.com 1.10,2013-02-19 23:23:00,
2013-02-19 17:38:00,5.0,-5.0,30.40,South,181,12.0,14.0,64,0.00,,,0.00,weatherlink.com 1.10,2013-02-19 23:38:00,
2013-02-19 17:54:00,4.4,-5.0,30.41,ESE,118,10.0,14.0,65,0.00,,,0.00,weatherlink.com 1.10,2013-02-19 23:54:00,
2013-02-19 18:09:00,3.9,-5.0,30.41,SE,124,7.0,12.0,66,0.00,,,0.00,weatherlink.com 1.10,2013-02-20 00:09:00,
2013-02-19 18:39:00,4.0,-4.0,30.43,SE,135,5.0,11.0,68,0.00,,,0.00,weatherlink.com 1.10,2013-02-20 00:39:00,
2013-02-19 18:54:00,3.2,-5.0,30.44,ESE,105,2.0,6.0,68,0.00,,,0.00,weatherlink.com 1.10,2013-02-20 00:54:00,
2013-02-19 19:09:00,2.2,-6.0,30.45,ESE,121,2.0,6.0,69,0.00,,,0.00,weatherlink.com 1.10,2013-02-20 01:09:00,
2013-02-19 19:24:00,1.8,-6.0,30.45,SE,136,3.0,7.0,69,0.00,,,0.00,weatherlink.com 1.10,2013-02-20 01:24:00,
2013-02-19 19:39:00,1.5,-7.0,30.46,SE,132,3.0,9.0,69,0.00,,,0.00,weatherlink.com 1.10,2013-02-20 01:39:00,
2013-02-19 19:54:00,0.9,-7.0,30.47,ESE,122,4.0,4.0,70,0.00,,,0.00,weatherlink.com 1.10,2013-02-20 01:54:00,
2013-02-19 20:10:00,0.4,-7.0,30.47,SE,146,4.0,6.0,71,0.00,,,0.00,weatherlink.com 1.10,2013-02-20 02:10:00,
2013-02-19 20:24:00,0.6,-6.0,30.47,ESE,122,3.0,6.0,72,0.00,,,0.00,weatherlink.com 1.10,2013-02-20 02:24:00,
2013-02-19 20:39:00,2.1,-5.0,30.47,SSE,150,8.0,13.0,71,0.00,,,0.00,weatherlink.com 1.10,2013-02-20 02:39:00,
2013-02-19 20:55:00,2.1,-6.0,30.49,SSE,160,8.0,11.0,69,0.00,,,0.00,weatherlink.com 1.10,2013-02-20 02:55:00,
2013-02-19 21:09:00,2.1,-6.0,30.49,SSE,149,4.0,12.0,69,0.00,,,0.00,weatherlink.com 1.10,2013-02-20 03:09:00,
2013-02-19 21:25:00,1.7,-6.0,30.49,SSW,195,9.0,12.0,69,0.00,,,0.00,weatherlink.com 1.10,2013-02-20 03:25:00,
2013-02-19 21:40:00,1.5,-6.0,30.49,SSE,167,6.0,13.0,70,0.00,,,0.00,weatherlink.com 1.10,2013-02-20 03:40:00,
2013-02-19 21:55:00,1.2,-6.0,30.50,SSE,155,9.0,14.0,70,0.00,,,0.00,weatherlink.com 1.10,2013-02-20 03:55:00,
2013-02-19 22:10:00,0.8,-7.0,30.50,SSE,149,8.0,10.0,71,0.00,,,0.00,weatherlink.com 1.10,2013-02-20 04:10:00,
2013-02-19 22:25:00,0.6,-7.0,30.50,SSE,166,8.0,12.0,71,0.00,,,0.00,weatherlink.com 1.10,2013-02-20 04:25:00,
2013-02-19 22:40:00,0.5,-7.0,30.50,SSE,160,9.0,12.0,72,0.00,,,0.00,weatherlink.com 1.10,2013-02-20 04:40:00,
2013-02-19 22:55:00,0.1,-7.0,30.51,SE,143,5.0,12.0,72,0.00,,,0.00,weatherlink.com 1.10,2013-02-20 04:55:00,
2013-02-19 23:10:00,-0.1,-7.0,30.52,SSE,158,2.0,7.0,73,0.00,,,0.00,weatherlink.com 1.10,2013-02-20 05:10:00,
2013-02-19 23:25:00,0.0,-6.0,30.52,SSE,165,5.0,9.0,74,0.00,,,0.00,weatherlink.com 1.10,2013-02-20 05:25:00,
2013-02-19 23:41:00,-0.1,-7.0,30.52,SSE,151,7.0,9.0,74,0.00,,,0.00,weatherlink.com 1.10,2013-02-20 05:41:00,
2013-02-19 23:55:00,-0.3,-7.0,30.53,SSE,153,4.0,8.0,74,0.00,,,0.00,weatherlink.com 1.10,2013-02-20 05:55:00,